Flag for U.S.A. Weather past 2 weeks in Evansville, Indiana, U.S.A.

Now
77 °F

Sunny.


Feels Like: 79 °F
Forecast: 74 / 92 °F
Wind: No wind

Location: Evansville Regional Airport

Current Time: Aug 27, 2014 at 8:18:54 AM

Latest Report: Aug 27, 2014 at 7:54 AM


Visibility: 6 mi

Pressure: 30.08 "Hg

Humidity: 82%

Dew point: 71 °F

Location of EvansvilleLocation

Historic Weather in Evansville — Graph

°F

Evansville temperature yesterday

Maximum temperature yesterday: 94 °F (at 3:54 PM)
Minimum temperature yesterday: 74 °F (at 5:54 AM)
Average temperature yesterday: 83 °F

Past Weeks' High & Low Weather Summary

 TemperatureHumidityPressure
High94 °F (Aug 23, 3:54 PM)97% (Aug 19, 6:01 AM)30.11 "Hg (Aug 19, 6:01 AM)
Low59 °F (Aug 13, 4:54 AM)38% (Aug 13, 1:54 PM)29.78 "Hg (Aug 19, 5:54 PM)
Average77 °F75%29.97 "Hg
* Reported Aug 12 6:54 AM — Aug 27 6:54 AM, Evansville, Weather by CustomWeather, © 2014

Note: Actual official high and low records may vary slightly from our data, if they occured in-between our weather recording intervals... More about our weather records

Advertising

Evansville weather history for previous 24 hours

 ConditionsComfort  
Time TempWeatherWind HumidityBarometerVisibility
6:54 AM
Aug 27
75 °FFog.3 mph88%30.09 "Hg5 mi
5:54 AM74 °FFog.5 mph91%30.07 "Hg6 mi
4:54 AM74 °FFog.No wind91%30.05 "Hg6 mi
3:54 AM75 °FFog.No wind88%30.05 "Hg6 mi
2:54 AM76 °FFog.No wind88%30.05 "Hg6 mi
1:54 AM76 °FFog.3 mph88%30.06 "Hg6 mi
12:54 AM77 °FClear.No wind85%30.07 "Hg7 mi
11:54 PM
Aug 26
78 °FClear.No wind82%30.06 "Hg8 mi
10:54 PM80 °FClear.No wind76%30.06 "Hg9 mi
9:54 PM82 °FClear.No wind72%30.06 "Hg9 mi
8:54 PM83 °FClear.6 mph72%30.05 "Hg9 mi
7:54 PM86 °FClear.3 mph70%30.05 "Hg8 mi
6:54 PM88 °FSunny.No wind63%30.04 "Hg8 mi
5:54 PM89 °FSunny.6 mph59%30.04 "Hg6 mi
4:54 PM93 °FSunny.8 mph50%30.04 "Hg7 mi
3:54 PM94 °FPassing clouds.7 mph46%30.04 "Hg10 mi
2:54 PM93 °FPassing clouds.No wind50%30.05 "Hg9 mi
1:54 PM91 °FPassing clouds.6 mph54%30.07 "Hg10 mi
12:54 PM92 °FPartly sunny.7 mph54%30.09 "Hg10 mi
11:54 AM90 °FSunny.3 mph56%30.09 "Hg10 mi
10:54 AM88 °FSunny.3 mph63%30.11 "Hg9 mi
9:54 AM85 °FSunny.No wind72%30.11 "Hg7 mi
8:54 AM80 °FSunny.No wind85%30.11 "Hg5 mi
Weather by CustomWeather, © 2014

See weather overviewHow to use our weather pages